FIN36J EETU-EFHK

Flight info

Callsign FIN36J
Flight time 0h 27m
Altitude 24000
Route OSKAV DCT LEMLA Q141 INTOR
Aircraft MD82/M-SDFGIRWY/C

Departure

Time 2026-05-05 19:35
Airport Tartu Airport (EETU)

Arrival

Time 2026-05-05 20:02
Airport Helsinki Vantaa Airport (EFHK)
Time Latitude Longitude Altitude Speed Heading
2026-05-05 18:51 58.30986 26.69093 222 ft 0 kts 88°
2026-05-05 19:27 58.30986 26.69105 222 ft 3 kts 89°
2026-05-05 19:27 58.30979 26.69155 221 ft 3 kts 135°
2026-05-05 19:27 58.30974 26.69157 221 ft 2 kts 167°
2026-05-05 19:27 58.30945 26.69161 221 ft 5 kts 178°
2026-05-05 19:28 58.30925 26.69155 221 ft 1 kts 205°
2026-05-05 19:28 58.30922 26.69151 221 ft 0 kts 215°
2026-05-05 19:28 58.30904 26.69124 221 ft 5 kts 217°
2026-05-05 19:28 58.30859 26.69102 222 ft 0 kts 181°
2026-05-05 19:30 58.30856 26.69102 222 ft 2 kts 181°
2026-05-05 19:30 58.30814 26.69101 221 ft 0 kts 180°
2026-05-05 19:31 58.30811 26.69101 221 ft 4 kts 180°
2026-05-05 19:31 58.30734 26.69102 221 ft 18 kts 179°
2026-05-05 19:31 58.30660 26.69105 222 ft 0 kts 169°
2026-05-05 19:31 58.30660 26.69106 222 ft 0 kts 160°
2026-05-05 19:32 58.30663 26.69116 222 ft 3 kts 46°
2026-05-05 19:32 58.30697 26.69165 221 ft 11 kts 33°
2026-05-05 19:32 58.30750 26.69278 221 ft 13 kts 76°
2026-05-05 19:32 58.30753 26.69517 215 ft 24 kts 88°
2026-05-05 19:33 58.30763 26.69879 210 ft 28 kts 86°
2026-05-05 19:33 58.30788 26.70124 210 ft 13 kts 76°
2026-05-05 19:33 58.30775 26.70183 209 ft 3 kts 169°
2026-05-05 19:33 58.30764 26.70174 211 ft 0 kts 233°
2026-05-05 19:34 58.30764 26.70172 211 ft 0 kts 247°
2026-05-05 19:34 58.30758 26.70055 210 ft 33 kts 266°
2026-05-05 19:34 58.30747 26.68962 223 ft 130 kts 268°
2026-05-05 19:35 58.30712 26.64073 1752 ft 198 kts 272°
2026-05-05 19:35 58.30700 26.61313 3149 ft 215 kts 270°
2026-05-05 19:35 58.30668 26.58502 4844 ft 209 kts 267°
2026-05-05 19:35 58.30647 26.55798 6553 ft 201 kts 270°
2026-05-05 19:36 58.31137 26.53296 7856 ft 214 kts 304°
2026-05-05 19:36 58.32331 26.51497 8749 ft 222 kts 316°
2026-05-05 19:36 58.33615 26.49834 9485 ft 225 kts 316°
2026-05-05 19:36 58.34913 26.48149 10111 ft 232 kts 316°
2026-05-05 19:37 58.36281 26.46434 10670 ft 239 kts 317°
2026-05-05 19:37 58.37697 26.44706 11286 ft 243 kts 318°
2026-05-05 19:37 58.39133 26.42952 11934 ft 246 kts 317°
2026-05-05 19:37 58.40568 26.41170 12597 ft 247 kts 317°
2026-05-05 19:38 58.42017 26.39366 13231 ft 251 kts 319°
2026-05-05 19:38 58.43585 26.37800 13828 ft 258 kts 324°
2026-05-05 19:38 58.45242 26.36379 14390 ft 263 kts 326°
2026-05-05 19:38 58.46924 26.35007 15039 ft 263 kts 326°
2026-05-05 19:39 58.48616 26.33649 15651 ft 265 kts 326°
2026-05-05 19:39 58.50324 26.32283 16247 ft 267 kts 326°
2026-05-05 19:39 58.52047 26.30901 16801 ft 270 kts 326°
2026-05-05 19:39 58.53787 26.29489 17273 ft 274 kts 325°
2026-05-05 19:40 58.55564 26.28025 17768 ft 285 kts 325°
2026-05-05 19:40 58.57382 26.26513 18568 ft 290 kts 325°
2026-05-05 19:40 58.59269 26.24952 19431 ft 293 kts 325°
2026-05-05 19:40 58.61128 26.23414 20288 ft 296 kts 325°
2026-05-05 19:41 58.63052 26.21825 21200 ft 297 kts 324°
2026-05-05 19:41 58.64950 26.20257 22126 ft 297 kts 324°
2026-05-05 19:41 58.66814 26.18716 23046 ft 297 kts 323°
2026-05-05 19:41 58.68748 26.17088 23494 ft 311 kts 323°
2026-05-05 19:42 58.70788 26.15331 23676 ft 333 kts 324°
2026-05-05 19:42 58.72980 26.13432 23770 ft 358 kts 325°
2026-05-05 19:42 58.75349 26.11398 23813 ft 386 kts 326°
2026-05-05 19:42 58.77903 26.09238 23833 ft 415 kts 327°
2026-05-05 19:43 58.80641 26.06954 23841 ft 443 kts 328°
2026-05-05 19:43 58.83561 26.04521 23852 ft 469 kts 328°
2026-05-05 19:43 58.86567 26.02033 23845 ft 461 kts 328°
2026-05-05 19:43 58.89448 25.99701 23846 ft 436 kts 328°
2026-05-05 19:44 58.92217 25.97434 23853 ft 431 kts 328°
2026-05-05 19:44 58.94978 25.95113 23859 ft 434 kts 327°
2026-05-05 19:44 58.97756 25.92740 23862 ft 438 kts 327°
2026-05-05 19:44 59.00547 25.90347 23863 ft 439 kts 327°
2026-05-05 19:45 59.03345 25.87954 23863 ft 440 kts 327°
2026-05-05 19:45 59.06148 25.85562 23858 ft 440 kts 327°
2026-05-05 19:45 59.08951 25.83173 23860 ft 440 kts 327°
2026-05-05 19:45 59.11758 25.80780 23864 ft 440 kts 327°
2026-05-05 19:46 59.14577 25.78369 23865 ft 447 kts 327°
2026-05-05 19:46 59.17440 25.75913 23864 ft 451 kts 327°
2026-05-05 19:46 59.20311 25.73447 23859 ft 452 kts 327°
2026-05-05 19:46 59.23189 25.70961 23865 ft 452 kts 327°
2026-05-05 19:47 59.26062 25.68474 23863 ft 452 kts 327°
2026-05-05 19:47 59.28936 25.65986 23862 ft 452 kts 327°
2026-05-05 19:47 59.31808 25.63503 23859 ft 451 kts 327°
2026-05-05 19:47 59.34684 25.61014 23859 ft 451 kts 327°
2026-05-05 19:48 59.37550 25.58531 23860 ft 451 kts 327°
2026-05-05 19:48 59.40422 25.56057 23787 ft 449 kts 327°
2026-05-05 19:48 59.43234 25.53629 23354 ft 434 kts 327°
2026-05-05 19:48 59.45959 25.51260 22804 ft 423 kts 327°
2026-05-05 19:49 59.48583 25.48975 22272 ft 412 kts 326°
2026-05-05 19:49 59.50340 25.47441 21916 ft 406 kts 326°
2026-05-05 19:49 59.53706 25.44491 21222 ft 394 kts 326°
2026-05-05 19:49 59.56182 25.42314 20709 ft 386 kts 326°
2026-05-05 19:50 59.58612 25.40176 20201 ft 379 kts 326°
2026-05-05 19:50 59.60997 25.38082 19706 ft 371 kts 326°
2026-05-05 19:50 59.63334 25.36025 19217 ft 365 kts 325°
2026-05-05 19:50 59.65629 25.34001 18737 ft 358 kts 325°
2026-05-05 19:51 59.67886 25.32004 18261 ft 352 kts 325°
2026-05-05 19:51 59.70104 25.30037 17737 ft 346 kts 324°
2026-05-05 19:51 59.72287 25.28094 17201 ft 341 kts 324°
2026-05-05 19:51 59.74437 25.26179 16671 ft 336 kts 324°
2026-05-05 19:52 59.76549 25.24294 16151 ft 331 kts 324°
2026-05-05 19:52 59.78634 25.22431 15642 ft 327 kts 324°
2026-05-05 19:52 59.80697 25.20591 15141 ft 324 kts 326°
2026-05-05 19:52 59.82134 25.19655 14818 ft 336 kts 340°
2026-05-05 19:53 59.84541 25.19702 14329 ft 359 kts
2026-05-05 19:53 59.86935 25.21357 13862 ft 368 kts 16°
2026-05-05 19:53 59.89285 25.23304 13327 ft 359 kts
2026-05-05 19:53 59.91667 25.23775 12798 ft 333 kts 343°
2026-05-05 19:54 59.93901 25.22955 12255 ft 324 kts 339°
2026-05-05 19:54 59.96109 25.22132 11727 ft 322 kts 343°
2026-05-05 19:54 59.98326 25.21533 11213 ft 320 kts 346°
2026-05-05 19:54 60.00537 25.21081 10697 ft 318 kts 349°
2026-05-05 19:55 60.02731 25.20757 10194 ft 315 kts 351°
2026-05-05 19:55 60.04914 25.20535 9691 ft 312 kts 353°
2026-05-05 19:55 60.07068 25.20385 9138 ft 308 kts 354°
2026-05-05 19:55 60.09173 25.20283 8590 ft 305 kts 355°
2026-05-05 19:56 60.11282 25.20200 8055 ft 302 kts 355°
2026-05-05 19:56 60.13372 25.20124 7524 ft 299 kts 355°
2026-05-05 19:56 60.15440 25.20047 7003 ft 296 kts 355°
2026-05-05 19:56 60.17489 25.19964 6491 ft 293 kts 355°
2026-05-05 19:57 60.19519 25.19873 5965 ft 291 kts 356°
2026-05-05 19:57 60.21537 25.19779 5440 ft 288 kts 356°
2026-05-05 19:57 60.23535 25.19686 4913 ft 286 kts 356°
2026-05-05 19:57 60.25518 25.19591 4382 ft 284 kts 356°
2026-05-05 19:58 60.27483 25.19486 3843 ft 282 kts 355°
2026-05-05 19:58 60.29439 25.19358 3324 ft 279 kts 355°
2026-05-05 19:58 60.31376 25.19221 2803 ft 278 kts 355°
2026-05-05 19:58 60.33300 25.19084 2347 ft 274 kts 353°
2026-05-05 19:59 60.35123 25.18480 2141 ft 258 kts 338°
2026-05-05 19:59 60.36677 25.16928 2047 ft 242 kts 324°
2026-05-05 19:59 60.37930 25.14838 2008 ft 226 kts 311°
2026-05-05 19:59 60.38667 25.12392 1986 ft 187 kts 278°
2026-05-05 20:00 60.38330 25.10088 1814 ft 173 kts 239°
2026-05-05 20:00 60.37635 25.08178 1522 ft 164 kts 239°
2026-05-05 20:00 60.36961 25.06477 1384 ft 145 kts 234°
2026-05-05 20:00 60.36324 25.05023 1141 ft 133 kts 232°
2026-05-05 20:01 60.35728 25.03695 918 ft 122 kts 231°
2026-05-05 20:01 60.35176 25.02487 748 ft 112 kts 231°
2026-05-05 20:01 60.34636 25.01323 595 ft 116 kts 229°
2026-05-05 20:01 60.34055 25.00112 459 ft 126 kts 230°
2026-05-05 20:02 60.33468 24.98796 279 ft 125 kts 231°
2026-05-05 20:02 60.32902 24.97541 176 ft 115 kts 230°
2026-05-05 20:02 60.32440 24.96490 165 ft 61 kts 227°
2026-05-05 20:02 60.32183 24.95938 168 ft 35 kts 221°
2026-05-05 20:03 60.32008 24.95882 167 ft 18 kts 133°
2026-05-05 20:03 60.31917 24.96059 167 ft 19 kts 139°
2026-05-05 20:03 60.31853 24.96217 167 ft 7 kts 91°
2026-05-05 20:03 60.31865 24.96307 167 ft 7 kts 73°
2026-05-05 20:04 60.31879 24.96371 167 ft 0 kts 87°
2026-05-05 20:04 60.31869 24.96407 167 ft 5 kts 137°
2026-05-05 20:04 60.31842 24.96460 167 ft 0 kts 136°